This demonstration page uses our WeatherBlox Daily Observations layout. Learn more.

Left ArrowRight Arrow

Hourly Observations for October 6, 2020

Temp ( °F °C ) Dew Point ( °F °C ) Humidity (%) Winds ( mph kmh ) Pressure ( in mb ) Visibility ( mi km ) Precip ( " mm )
12:53 am 00:53 Clear 71 21.7 44 6.7 38 38 SE 13 20 29.85 1011 10 16 0.00 0.00
1:53 am 01:53 Clear 66 18.9 43 6.1 43 43 SE 8 13 29.86 1011 10 16 0.00 0.00
2:53 am 02:53 Clear 63 17.2 42 5.6 47 47 SE 9 15 29.86 1011 10 16 0.00 0.00
3:53 am 03:53 Clear 62 16.7 41 5 46 46 SE 3 6 29.86 1011 10 16 0.00 0.00
4:53 am 04:53 Clear 59 15 40 4.4 49 49 SE 6 9 29.86 1011 10 16 0.00 0.00
5:53 am 05:53 Clear 53 11.7 38 3.3 57 57 NNW 7 11 29.88 1012 10 16 0.00 0.00
6:53 am 06:53 Clear 50 10 37 2.8 61 61 N 6 9 29.91 1013 10 16 0.00 0.00
7:53 am 07:53 Sunny 49 9.4 38 3.3 66 66 NNW 6 9 29.94 1014 10 16 0.00 0.00
8:53 am 08:53 Sunny 55 12.8 39 3.9 55 55 N 6 9 29.96 1015 10 16 0.00 0.00
9:53 am 09:53 Sunny 63 17.2 41 5 45 45 NNW 5 7 29.97 1015 10 16 0.00 0.00
10:53 am 10:53 Sunny 71 21.7 42 5.6 35 35 NNW 5 7 29.97 1015 10 16 0.00 0.00
11:53 am 11:53 Sunny 81 27.2 39 3.9 22 22 ENE 8 13 29.96 1015 10 16 0.00 0.00
12:53 pm 12:53 Sunny 84 28.9 40 4.4 21 21 Calm 29.95 1014 10 16 0.00 0.00
1:53 pm 13:53 Sunny 88 31.1 39 3.9 18 18 VRB 3 6 29.93 1013 10 16 0.00 0.00
2:53 pm 14:53 Sunny 91 32.8 38 3.3 15 15 SE 8 13 29.90 1013 10 16 0.00 0.00
3:53 pm 15:53 Sunny 93 33.9 33 0.6 12 12 E 10 17 29.88 1012 10 16 0.00 0.00
4:53 pm 16:53 Sunny 94 34.4 30 -1.1 10 10 SE 10 17 29.88 1012 10 16 0.00 0.00
5:53 pm 17:53 Sunny 92 33.3 28 -2.2 10 10 ESE 12 19 29.88 1012 10 16 0.00 0.00
6:53 pm 18:53 Sunny 90 32.2 27 -2.8 10 10 SE 9 15 29.90 1013 10 16 0.00 0.00
7:53 pm 19:53 Clear 82 27.8 28 -2.2 14 14 ESE 8 13 29.92 1013 10 16 0.00 0.00
8:53 pm 20:53 Clear 78 25.6 29 -1.7 16 16 ESE 7 11 29.93 1014 10 16 0.00 0.00
9:53 pm 21:53 Clear 77 25 36 2.2 23 23 SE 13 20 29.94 1014 10 16 0.00 0.00
10:53 pm 22:53 Clear 76 24.4 42 5.6 30 30 SSE 13 20 29.94 1014 10 16 0.00 0.00
11:53 pm 23:53 Clear 72 22.2 44 6.7 37 37 SSE 9 15 29.95 1014 10 16 0.00 0.00

Powered by AerisWeather